Location: Linz
(48.3300°N, 14.3000°E)
Time: 05:02:04
(UTC+02:00)

OTV 5 (USA 277) - Visible Passes

Search period start: 21 June 2018 00:00
Search period end: 01 July 2018 00:00
Orbit: 313 x 320 km, 54.5° (Epoch: 19 June)

Date Brightness Start Highest point End Pass type
(mag) Time Alt. Az. Time Alt. Az. Time Alt. Az.
21 Jun ? 01:00:30 10° NW 01:02:56 29° NNE 01:05:23 10° E visible
21 Jun ? 02:34:43 10° WNW 02:37:23 54° SW 02:37:35 52° SSW visible
21 Jun ? 22:05:27 10° W 22:07:53 30° NNW 22:10:21 10° NE visible
21 Jun ? 23:40:34 10° NW 23:42:44 21° N 23:44:56 10° ENE visible
22 Jun ? 01:14:51 10° NW 01:17:30 46° NNE 01:18:44 25° E visible
22 Jun ? 02:49:26 10° W 02:49:30 11° W 02:49:30 11° W visible
22 Jun ? 22:20:16 10° WNW 22:22:31 23° N 22:24:46 10° NE visible
22 Jun ? 23:55:04 10° NW 23:57:24 25° NNE 23:59:44 10° ENE visible
23 Jun ? 01:29:15 10° WNW 01:31:24 52° WNW 01:31:24 52° WNW visible
23 Jun ? 22:35:01 10° NW 22:37:10 21° N 22:39:21 10° NE visible
24 Jun ? 00:09:27 10° NW 00:11:59 35° NNE 00:13:36 18° ENE visible
24 Jun ? 01:43:47 10° WNW 01:44:25 15° W 01:44:25 15° W visible
24 Jun ? 22:49:36 10° NW 22:51:50 22° N 22:54:05 10° ENE visible
25 Jun ? 00:23:48 10° NW 00:26:31 65° NNE 00:26:46 59° ENE visible
25 Jun ? 23:04:02 10° NW 23:06:28 29° NNE 23:08:54 10° E visible
26 Jun ? 00:38:15 10° WNW 00:40:04 35° W 00:40:04 35° W visible
26 Jun ? 21:44:05 10° NW 21:46:16 21° N 21:48:27 10° ENE visible
26 Jun ? 23:18:24 10° NW 23:21:02 45° NNE 23:22:36 20° E visible
27 Jun ? 00:52:57 10° W 00:53:27 13° W 00:53:27 13° W visible
27 Jun ? 21:58:36 10° NW 22:00:56 25° NNE 22:03:15 10° ENE visible
27 Jun ? 23:32:47 10° WNW 23:35:30 86° SSW 23:36:02 53° SE visible
28 Jun ? 22:13:00 10° NW 22:15:32 35° NNE 22:18:03 10° E visible
28 Jun ? 23:47:19 10° WNW 23:49:31 34° WSW 23:49:31 34° WSW visible
29 Jun ? 22:27:21 10° NW 22:30:02 63° NNE 22:32:13 14° ESE visible
30 Jun ? 00:02:17 10° W 00:03:04 14° WSW 00:03:04 14° WSW visible
30 Jun ? 22:41:48 10° WNW 22:44:28 57° SW 22:45:48 24° SE visible
